EW5246 Weather Reports


time (UTC)temp
C
wind
direction
speed
KPH
gust
KPH
rain 1hr
cm
rain 24hr
cm
rain mn
cm
humidity
%
barometer
mb
20260510104541 7 300 1.6 6.4 0.00 1.04 0.00 87 1013.3
20260510103040 7 24 0.0 4.8 0.00 1.04 0.00 88 1013.0
20260510101537 7 339 0.0 3.2 0.00 1.04 0.00 87 1012.8
20260510100032 7 16 1.6 4.8 0.00 1.04 0.00 85 1012.6
20260510094544 8 328 0.0 3.2 0.00 1.04 0.00 86 1012.6
20260510093026 8 6 0.0 4.8 0.00 1.04 0.00 86 1012.2
20260510091525 8 37 1.6 3.2 0.00 1.04 0.00 88 1011.9
20260510090024 8 37 0.0 3.2 0.00 1.04 0.00 90 1011.5
20260510084521 8 37 0.0 1.6 0.00 1.04 0.00 90 1011.5
20260510083017 8 37 0.0 1.6 0.00 1.04 0.00 90 1011.4
20260510081517 8 37 0.0 1.6 0.00 1.04 0.00 91 1011.3
20260510080014 8 37 0.0 1.6 0.00 1.12 0.00 91 1010.9
20260510074509 9 37 0.0 4.8 0.00 1.12 0.00 91 1010.7
20260510073008 9 55 1.6 8.0 0.00 1.12 0.00 95 1010.4
20260510071506 9 38 3.2 8.0 0.00 1.12 0.00 97 1010.3
20260510070008 9 49 0.0 8.0 0.00 1.37 0.00 96 1010.1
20260510064501 9 26 0.0 6.4 0.00 1.37 0.00 97 1010.0
20260510063100 10 338 1.6 8.0 0.00 1.37 0.00 97 1009.9
20260510061556 10 326 0.0 6.4 0.00 1.37 0.00 97 1009.8
20260510060055 10 32 1.6 4.8 0.00 1.37 0.00 97 1009.6
20260510054552 11 335 1.6 8.0 0.00 1.52 0.00 97 1009.7
20260510053100 11 314 1.6 11.3 0.00 1.52 0.00 97 1009.6
20260510051550 11 188 4.8 16.1 0.00 1.52 0.00 97 1009.1
20260510050046 11 224 1.6 9.7 0.00 1.52 0.00 97 1008.3
20260510044543 11 211 1.6 8.0 0.03 1.60 0.00 97 1008.0
20260510043053 11 210 1.6 8.0 0.03 1.60 0.00 97 1007.9
20260510041541 11 214 1.6 6.4 0.03 1.60 0.00 97 1007.7
20260510040043 11 212 1.6 9.7 0.03 1.60 0.00 97 1008.0
20260510034539 11 191 3.2 12.9 0.00 1.65 1.60 97 1008.1
20260510033036 11 169 6.4 16.1 0.15 1.65 1.60 97 1008.3
20260510031540 11 195 3.2 6.4 0.15 1.65 1.60 97 1007.9
20260510030053 11 229 1.6 4.8 0.15 1.65 1.60 97 1007.6
20260510024553 11 207 8.0 25.7 0.15 1.65 1.60 97 1007.9
20260510023053 11 232 6.4 16.1 0.00 1.50 1.42 97 1008.2
20260510021553 11 218 0.0 6.4 0.00 1.50 1.42 97 1007.4
20260510020054 11 217 1.6 4.8 0.00 1.50 1.42 97 1007.7
20260510014550 11 217 0.0 4.8 0.00 1.55 1.42 97 1007.3
20260510013052 11 214 1.6 4.8 0.00 1.55 1.42 97 1007.3
20260510011552 11 214 0.0 8.0 0.00 1.55 1.42 96 1007.3
20260510010010 11 217 1.6 6.4 0.00 1.65 1.42 96 1007.0
20260510004509 11 247 1.6 6.4 0.00 1.65 1.42 96 1007.0
20260510003009 11 232 1.6 6.4 0.10 1.65 1.42 96 1007.0
20260510001510 11 274 1.6 8.0 0.28 1.65 1.42 96 1006.9
20260510000008 11 198 4.8 11.3 0.86 1.80 1.42 96 1007.0
20260509234507 11 245 3.2 19.3 0.86 1.80 1.42 96 1006.7
20260509233006 11 264 11.3 32.2 0.76 1.70 1.35 95 1007.2
20260509231505 12 288 11.3 40.2 0.56 1.50 1.14 93 1006.5
20260509230007 17 310 14.5 35.4 0.00 1.32 0.58 68 1006.5
20260509224507 19 203 8.0 16.1 0.00 1.32 0.58 57 1004.4
20260509223003 19 193 6.4 17.7 0.00 1.32 0.58 55 1004.4
20260509221502 20 243 12.9 29.0 0.00 1.32 0.58 54 1004.6
20260509220005 20 218 8.0 25.7 0.00 1.37 0.58 53 1004.4
20260509214632 20 200 8.0 30.6 0.00 1.37 0.58 54 1004.3
20260509213102 20 152 8.0 22.5 0.00 1.37 0.58 55 1004.3
20260509211556 20 179 9.7 24.1 0.00 1.37 0.58 56 1004.4
20260509210024 20 191 9.7 22.5 0.00 1.37 0.58 57 1004.7
20260509204523 20 207 8.0 22.5 0.00 1.37 0.58 56 1004.9
20260509203022 20 202 4.8 19.3 0.00 1.37 0.58 58 1005.1
20260509201518 20 195 8.0 27.4 0.00 1.37 0.58 57 1005.3
20260509200017 20 199 9.7 24.1 0.00 1.37 0.58 57 1005.3
20260509194513 20 209 12.9 24.1 0.00 1.37 0.58 57 1005.5
20260509193021 19 186 8.0 29.0 0.00 1.37 0.58 59 1005.9
20260509191508 19 179 4.8 20.9 0.00 1.37 0.58 60 1006.2
20260509190007 18 212 9.7 22.5 0.00 1.37 0.58 60 1006.4
20260509184519 18 199 8.0 24.1 0.00 1.37 0.58 61 1006.5
20260509183007 18 205 8.0 22.5 0.00 1.37 0.58 60 1006.5
20260509181503 18 200 6.4 20.9 0.00 1.37 0.58 61 1006.2
20260509180109 18 198 4.8 16.1 0.00 1.37 0.58 62 1006.5
20260509174621 18 191 6.4 14.5 0.00 1.37 0.58 61 1006.5
20260509173100 17 240 4.8 17.7 0.00 1.37 0.58 62 1006.6
20260509171558 18 165 8.0 16.1 0.00 1.37 0.58 63 1006.5
20260509170010 17 193 8.0 17.7 0.00 1.37 0.58 65 1006.4
20260509164504 17 205 6.4 12.9 0.00 1.37 0.58 70 1006.7
20260509163003 17 221 4.8 17.7 0.00 1.37 0.58 70 1006.9
20260509161500 17 223 4.8 12.9 0.00 1.37 0.58 71 1007.1
20260509160058 16 205 4.8 16.1 0.00 1.37 0.58 72 1007.2
20260509154554 15 196 3.2 11.3 0.00 1.37 0.58 80 1007.3
20260509153104 15 257 4.8 11.3 0.00 1.37 0.58 81 1007.1
20260509151553 14 238 3.2 17.7 0.00 1.37 0.58 84 1007.2
20260509150010 13 246 4.8 11.3 0.00 1.37 0.58 90 1007.1
20260509144505 13 207 4.8 12.9 0.00 1.37 0.58 92 1007.2
20260509143004 12 211 1.6 9.7 0.00 1.37 0.58 96 1007.1
20260509141600 12 243 1.6 11.3 0.00 1.37 0.56 97 1007.2
20260509134557 11 198 3.2 11.3 0.00 1.37 0.56 97 1007.2
20260509133054 11 223 3.2 11.3 0.00 1.37 0.56 97 1007.3
20260509131552 11 212 1.6 6.4 0.00 1.37 0.56 97 1007.1
20260509130051 11 192 1.6 9.7 0.00 1.37 0.56 97 1007.3
20260509124550 10 195 0.0 8.0 0.00 1.42 0.56 97 1007.4
20260509123042 10 201 1.6 8.0 0.00 1.42 0.56 97 1007.7
20260509121542 10 192 3.2 9.7 0.00 1.42 0.56 97 1007.7
20260509120040 10 237 1.6 9.7 0.00 1.42 0.56 97 1007.7
20260509114536 10 146 0.0 4.8 0.00 1.42 0.56 97 1007.7
20260509113039 10 148 1.6 4.8 0.00 1.42 0.56 97 1007.6
20260509111533 10 203 0.0 4.8 0.00 1.42 0.56 97 1007.7
20260509110032 10 134 1.6 6.4 0.00 1.42 0.56 97 1007.4